Tracking 30995 objects as of 5-Jul-2025
HD Live streaming from Space Station
objects crossing your sky now

STARLINK-31332

Track STARLINK-31332 now!
10-day predictions
STARLINK-31332 is classified as:


NORAD ID: 59566
Int'l Code: 2024-076C
Perigee: 489.2 km
Apogee: 491.3 km
Inclination: 43.0 °
Period: 94.3 minutes
Semi major axis: 6861 km
RCS: Unknown
Launch date: April 23, 2024
Source: United States (US)
Launch site: AIR FORCE EASTERN TEST RANGE (AFETR)
Your satellite tracking list
Your tracking list is empty




NASA's NSSDC Master Catalog

Two Line Element Set (TLE):
1 59566U 24076C   25186.45284862 -.00000607  00000-0 -12531-4 0  9992
2 59566  43.0044 325.0357 0001504 286.7524  73.3162 15.27563835 68693
Source of the keplerian elements: AFSPC